Flight Track Log - Related Links

Times and Time Zones

All times are in EDT time to prevent confusion due to time zone crossing. See the N690TW flight status page for this flight to view local times or setup timezone preferences in your user account.

Time Position Orientation Groundspeed Altitude Reporting Facility
EDT Latitude Longitude Course Direction KTS MPH feet Rate Location/Type
Sat 09:39:18 AM 39.9333 -105.1333 21° North 150 173 6,800  Level Denver TRACON
Sat 09:40:18 AM 39.9667 -105.1167 21° North 159 183 8,600 1,810 Climbing Denver TRACON
Sat 09:41:24 AM 40.0000 -105.1667 311° West 159 183 10,600 1,721 Climbing Denver TRACON
Sat 09:42:27 AM 40.0047 -105.2258 276° West 168 193 12,300 1,884 Climbing Denver Center
Sat 09:43:25 AM 40.0083 -105.2878 274° West 172 198 14,400 1,916 Climbing Denver Center
Sat 09:44:26 AM 40.0122 -105.3481 275° West 171 197 16,100 1,632 Climbing Denver Center
Sat 09:45:30 AM 40.0161 -105.4200 274° West 180 207 17,800 1,776 Climbing Denver Center
Sat 09:46:31 AM 40.0200 -105.4861 274° West 184 212 19,800 1,686 Climbing Denver Center
Sat 09:47:31 AM 40.0233 -105.5453 274° West 178 205 21,200 1,091 Climbing Denver Center
Sat 09:48:32 AM 40.0275 -105.6164 274° West 188 216 22,000 390 Climbing Denver Center
Sat 09:49:34 AM 40.0289 -105.7039 271° West 229 264 22,000  Level Denver Center
Sat 09:50:33 AM 40.0256 -105.7903 267° West 237 273 22,000  Level Denver Center
Sat 09:51:34 AM 40.0242 -105.8756 269° West 237 273 22,000  Level Denver Center
Sat 09:52:35 AM 40.0217 -105.9594 268° West 202 232 22,000  Level Denver Center
Sat 09:53:36 AM 40.0189 -106.0222 267° West 177 204 22,000  Level Denver Center
Sat 09:54:39 AM 40.0161 -106.0858 267° West 178 205 22,000  Level Denver Center
Sat 09:55:40 AM 40.0144 -106.1475 268° West 172 198 22,000  Level Denver Center
Sat 09:56:41 AM 40.0128 -106.2103 268° West 173 199 22,000  Level Denver Center
Sat 09:57:42 AM 40.0092 -106.2728 266° West 173 199 22,000  Level Denver Center
Sat 09:58:44 AM 40.0072 -106.3364 268° West 174 200 22,000 -393 Level Denver Center
Sat 09:59:44 AM 40.0147 -106.4042 278° West 196 226 21,200 -1,008 Descending Denver Center
Sat 10:00:43 AM 40.0839 -106.4278 345° North 253 291 20,000 -1,415 Descending Denver Center
Sat 10:01:47 AM 40.1581 -106.4364 355° North 261 300 18,300 -1,584 Descending Denver Center
Sat 10:02:48 AM 40.2328 -106.4461 354° North 266 306 16,700 -1,525 Descending Denver Center
Sat 10:03:49 AM 40.2561 -106.5181 293° West 236 272 15,200 -780 Descending Denver Center
Sat 10:04:51 AM 40.2678 -106.5825 283° West 205 236 15,100 -496 Descending Denver Center
Sat 10:05:50 AM 40.2606 -106.6619 263° West 190 219 14,200 -787 Descending Denver Center
Sat 10:06:53 AM 40.2542 -106.7100 260° West 181 208 13,500 -537 Descending Denver Center
Sat 10:07:53 AM 40.2400 -106.7872 257° West 178 205 13,100 -246 Descending Denver Center
Sat 10:08:55 AM 40.2733 -106.8225 321° Northwest 184 212 13,000 -585 Descending Denver Center
Sat 10:09:56 AM 40.3267 -106.8225 360° North 186 214 11,900 -1,082 Descending Denver Center

Login

Don't have an account? Register now (free) for customized features, flight alerts, and more!